Terminal Aerodrome Forecast
Issued by NWS

Home | Current Version | Previous Version | Text Only | Print | Product List | Glossary On
Versions: 1 2 3 4 5 6 7 8 9 10 11 12 13 14 15 16 17
000
FTUS46 KMTR 272320
TAFSJC
TAF
KSJC 272320Z 2800/2824 30012KT P6SM SKC
     FM280500 31007KT P6SM FEW018
     FM280800 31003KT P6SM BKN014
     FM281100 VRB03KT P6SM OVC014
     FM281600 28005KT P6SM SCT017
     FM281800 29010KT P6SM SKC=

USA.gov is the U.S. government's official web portal to all federal, state and local government web resources and services.